Location: *
(48.7052°N, 2.3915°E)
Time: 00:43:32
(UTC+00:00)

Daily predictions for brighter satellites

Satellite Brightness Start Highest point End
(mag) Time Altitude Azimuth Time Altitude Azimuth Time Altitude Azimuth
Cosmos 1758 Rocket 3.5 00:05:46 36° SSW 00:07:31 81° W 00:11:57 10° N
Cosmos-2242 3.0 00:04:20 10° NNW 00:08:44 74° W 00:10:23 37° S
BREEZE-M DEB (TANK) 3.9 00:10:27 19° E 00:10:27 19° E 00:11:25 10° E
SL-16 R/B 2.4 00:05:46 22° SW 00:09:30 68° WNW 00:15:10 10° NNE
Cosmos 405 Rocket 3.6 00:10:16 30° SE 00:11:16 36° E 00:14:40 10° NNE
Cosmos 2237 Rocket 3.9 00:07:14 10° WSW 00:12:06 29° NW 00:16:59 10° NNE
Cosmos 2369 Rocket 2.2 00:14:07 10° NNW 00:19:53 85° WSW 00:23:24 24° SSE
Cosmos 2279 Rocket 4.0 00:15:01 10° N 00:21:18 88° W 00:24:57 27° S
Cosmos 1634 Rocket 4.3 00:18:37 10° NNW 00:24:46 56° W 00:28:13 26° SSW
Cosmos 468 Rocket 4.1 00:22:37 31° S 00:25:02 67° ESE 00:30:14 10° NNE
PSLV R/B 3.6 00:23:33 10° N 00:27:54 77° WNW 00:29:51 33° SSW
Cosmos 2058 3.8 00:27:05 27° SE 00:28:45 40° E 00:32:36 10° NNE
ATLAS 5 CENTAUR R/B 3.4 00:29:08 14° SE 00:29:57 15° ESE 00:32:21 10° ENE
Cosmos 2263 4.1 00:30:08 10° NNW 00:35:52 86° WSW 00:39:42 21° SSE
Cosmos 2221 3.0 00:34:02 10° N 00:38:16 54° ENE 00:40:40 24° SE
Cosmos 1763 Rocket 3.4 00:35:46 31° SSW 00:38:17 84° ESE 00:43:28 10° NNE
USA 267 3.5 00:34:12 21° SSE 00:38:19 47° SW 00:44:36 10° WNW
USA 307 4.2 00:39:13 23° SE 00:39:37 24° SE 00:43:02 10° E
CREW DRAGON DEMO-1 DEB 2.6 00:40:08 60° ENE 00:40:08 60° ENE 00:42:13 10° ENE
NOSS 2-3 (D) 3.8 00:38:31 24° WSW 00:41:01 68° NW 00:45:59 10° NE
BREEZE-M R/B 4.2 00:41:41 18° SE 00:41:41 18° SE 00:44:22 10° E
MOZ.5/SAFIR/RUBIN 5/SL-8 4.3 00:39:14 19° SE 00:42:31 58° ENE 00:47:13 10° N
Cosmos 2098 Rocket 4.0 00:40:13 23° SSE 00:43:09 47° E 00:47:19 10° NNE
Meteor 2-13 Rocket 4.4 00:40:40 27° SSW 00:44:16 85° W 00:50:29 10° N
Cosmos 1606 3.8 00:42:38 10° N 00:46:16 39° ENE 00:48:37 19° SE
Thor Agena Rocket 4.3 00:42:09 10° N 00:47:07 44° WNW 00:50:21 20° SW
FALCON 9 DEB 3.0 00:47:45 10° WNW 00:51:11 90° NE 00:54:35 10° ESE
SJ 16-02 3.1 00:50:40 10° NW 00:53:29 17° W 00:54:25 16° WSW
USA 308 3.9 00:54:37 27° SSE 00:55:30 30° SE 00:59:15 10° ENE
Meteor 2-2 Rocket 4.4 00:49:44 10° NNW 00:55:49 81° W 00:59:45 23° S
Resurs 1-4 Rocket 3.1 00:51:00 10° NNE 00:55:57 38° E 00:59:27 18° SSE
Helios 1B rocket 4.3 00:52:46 10° NE 00:56:02 22° E 00:58:31 14° SE
NOSS 2-3 (C) 4.4 00:54:45 16° WSW 00:57:56 50° NW 01:02:55 10° NE
Nadezhda 4 Rocket 4.0 00:54:45 24° S 00:58:37 78° E 01:04:45 10° NNE
YAOGAN 11 4.1 00:59:31 29° S 01:01:47 71° WSW 01:06:18 10° NNW
X-37B 1.2 01:05:32 38° SSE 01:05:32 38° SSE 01:08:03 10° ESE
ADEOS II 3.9 01:01:16 10° NE 01:05:22 22° E 01:09:27 10° SE
Cosmos 1892 4.1 01:05:13 21° WSW 01:06:55 29° WNW 01:10:20 10° N
Cosmos 1943 Rocket 3.6 01:04:48 10° NW 01:08:41 20° W 01:10:23 17° SW
Helios 1A 3.0 01:09:08 29° S 01:11:07 62° WSW 01:15:19 10° NNW
Cosmos 1437 Rocket 3.0 01:07:24 10° NNW 01:11:10 50° W 01:12:36 32° SSW
USA 305 3.4 01:11:07 30° S 01:12:39 42° SE 01:16:41 10° ENE
FALCON 9 DEB 3.9 01:09:58 10° WNW 01:13:02 49° NNE 01:16:06 10° E
Cosmos 540 Rocket 3.4 01:12:18 26° SSW 01:15:16 85° WNW 01:20:26 10° NNE
EO 1 Del DPAF 4.4 01:12:20 10° N 01:15:42 32° WNW 01:17:28 21° WSW
CZ-2D R/B 2.5 01:12:58 10° NNE 01:18:06 55° E 01:21:42 19° S
SL-4 R/B 2.5 01:14:34 10° WNW 01:18:16 53° N 01:21:46 10° E
Lacrosse 4 Rocket 1.4 01:14:36 10° NNW 01:18:44 76° NE 01:22:46 10° SE
Cosmos 1943 3.3 01:18:33 22° SW 01:22:18 70° WNW 01:27:58 10° NNE
Exosat Rocket 4.2 01:19:22 19° SW 01:23:53 56° WNW 01:28:59 10° NNE
NOSS 2-2 (E) 3.3 01:23:29 31° S 01:24:52 54° SE 01:28:35 10° NE
Cosmos 841 Rocket 3.5 01:24:11 24° SSW 01:27:23 79° WNW 01:32:34 10° NNE
Cosmos 1242 Rocket 2.7 01:24:01 10° NNW 01:27:33 56° W 01:29:10 29° SSW
Lacrosse 5 rocket 3.0 01:24:50 10° NW 01:28:05 32° NNE 01:31:23 10° E
FALCON 9 DEB 3.1 01:25:20 10° WNW 01:28:26 69° NNE 01:31:30 10° ESE
DELTA 2 R/B (1) 4.3 01:27:52 21° SW 01:30:31 32° S 01:35:23 10° ESE
Aureole 3 Rocket 3.1 01:27:00 10° NNW 01:30:57 82° W 01:35:00 17° S
Cosmos 1825 3.4 01:29:14 21° WSW 01:30:58 30° WNW 01:34:22 10° N
Cosmos 1603 4.1 01:28:04 19° SW 01:32:08 59° WNW 01:37:45 10° NNE
USA 229 DEB 4.3 01:26:09 10° WSW 01:32:25 53° NW 01:39:16 10° NE
USA 229 4.2 01:26:17 11° WSW 01:32:31 54° NW 01:39:22 10° NE
UNK 3.7 01:29:27 15° SSE 01:33:12 86° ENE 01:37:52 10° NNW
USA 306 3.0 01:32:45 25° SW 01:35:04 58° SE 01:39:15 10° ENE
Cosmos 1937 Rocket 4.3 01:31:35 10° NW 01:36:22 35° WSW 01:39:08 21° SSW
ERBS 4.4 01:35:40 13° SE 01:36:32 15° SE 01:38:24 10° E
FALCON 9 DEB 3.2 01:33:32 10° WNW 01:36:39 66° NNE 01:39:45 10° ESE
SL-16 R/B 2.5 01:31:08 13° SSE 01:36:49 81° WSW 01:43:02 10° NNW
ARGOS Delta rocket 4.2 01:31:18 10° N 01:36:50 87° WNW 01:40:44 20° SSW
Meteor 2-19 Rocket 4.4 01:33:27 19° S 01:38:00 89° W 01:44:10 10° N
CZ-4 R/B 4.3 01:33:51 10° N 01:38:19 47° WNW 01:41:21 20° SW
NOSS 2-2 (C) 3.2 01:37:08 27° SSW 01:38:46 58° SE 01:42:27 10° NE
FALCON 9 DEB 2.9 01:35:57 10° WNW 01:39:04 77° NNE 01:42:10 10° ESE
Cosmos 1092 Rocket 4.0 01:36:11 19° S 01:40:47 86° W 01:46:58 10° N
USA 215 4.3 01:40:01 10° ENE 01:46:12 46° N 01:52:22 10° W
Cosmos 921 Rocket 3.2 01:44:24 22° SW 01:46:58 59° WNW 01:51:08 10° NNE
CZ-4C R/B 4.0 01:44:34 10° SSE 01:47:49 18° ESE 01:51:24 10° ENE
NOSS 3-1 (A) 4.4 01:46:52 10° WSW 01:52:14 43° NNW 01:58:35 10° NE
ADEOS Rocket 3.4 01:45:12 10° SSE 01:52:25 79° ENE 01:58:56 10° NNW
SL-16 R/B 4.5 01:51:02 10° WNW 01:54:44 17° NW 01:58:27 10° N
Cosmos 2151 2.9 01:53:31 19° S 01:56:30 86° WNW 02:00:44 10° N
USA 290 2.4 01:55:28 23° SW 01:57:14 61° WNW 02:00:27 10° NNE
Cosmos 1814 Rocket 4.2 01:55:05 18° SW 01:58:54 64° WNW 02:04:03 10° NNE
Cosmos 2298 Rocket 4.0 01:54:28 10° NNW 01:59:50 80° WSW 02:05:10 10° SSE
Cosmos 1633 3.0 01:58:12 21° SW 02:00:11 45° WNW 02:03:37 10° N
Cosmos 2369 Rocket 4.0 01:59:58 10° WNW 02:03:01 15° W 02:05:09 12° WSW
Cosmos 1076 Rocket 4.1 02:01:26 18° SW 02:04:12 42° WNW 02:08:16 10° N
Cosmos 1271 Rocket 3.8 02:01:22 10° N 02:04:57 42° ENE 02:08:33 10° SSE
Cosmos 1782 3.0 02:06:08 10° N 02:10:10 73° E 02:14:10 10° SSE
IRIDIUM 104 4.4 02:05:17 10° N 02:10:32 82° E 02:15:46 10° S
Cosmos 2150 Rocket 4.0 02:05:45 10° NNW 02:10:56 70° WSW 02:16:09 10° SSE
Cosmos 1570 Rocket 4.5 02:08:00 15° SW 02:12:08 52° WNW 02:17:15 10° NNE
CREW DRAGON DEMO-1 DEB 3.7 02:11:17 10° WNW 02:13:36 37° N 02:15:55 10° ENE
ATLAS 5 CENTAUR R/B 1.6 02:10:38 16° SW 02:13:48 71° NW 02:18:20 10° NE
Cosmos 2221 4.4 02:12:43 10° NW 02:15:21 16° W 02:17:30 12° WSW
OE (NEXTSAT) 4.4 02:12:33 10° W 02:15:56 53° S 02:19:17 10° ESE
Cosmos 1125 Rocket 3.5 02:10:40 10° NNW 02:15:56 77° WSW 02:21:12 10° SSE
Cosmos 1437 4.3 02:15:16 10° NW 02:17:10 17° W 02:17:58 15° WSW
Cosmos 2292 Rocket 2.5 02:16:42 16° S 02:18:54 83° W 02:21:57 10° N
USA 307 2.9 02:15:18 12° WSW 02:19:12 84° NNW 02:23:29 10° ENE
IRIDIUM 114 4.3 02:14:26 10° N 02:19:42 84° W 02:24:55 10° S
CENTAUR R/B 3.8 02:12:54 10° NW 02:20:43 61° NE 02:29:27 10° ESE
CZ-4C R/B 3.9 02:17:34 10° SSE 02:20:55 51° ENE 02:24:20 10° N
Meteor 1-29 2.9 02:17:47 10° NNE 02:21:12 84° WNW 02:24:01 14° SSW
Cosmos 1606 4.5 02:19:02 10° NW 02:21:39 18° W 02:23:35 13° WSW
ARIANE 5 R/B 4.1 02:20:24 10° NE 02:24:47 30° E 02:29:10 10° SSE
IRIDIUM 103 4.4 02:23:37 10° N 02:28:50 71° W 02:34:01 10° S
Cosmos 1833 Rocket 4.4 02:26:40 10° SSE 02:31:19 27° ESE 02:35:59 10° NE
Helios 1B rocket 3.3 02:27:36 10° N 02:31:24 38° WNW 02:34:49 12° SW
Meteor 1-28 Rocket 3.2 02:30:27 10° S 02:34:13 63° W 02:38:00 10° NNW
AQUA 4.3 02:29:37 10° N 02:34:13 49° WNW 02:38:32 11° SW
Cosmos 1553 Rocket 4.1 02:28:45 10° NNW 02:34:57 61° W 02:41:01 10° S
SL-19 R/B 4.4 02:29:53 10° N 02:35:03 58° WNW 02:40:16 11° SW
Meteor 2-14 Rocket 4.5 02:28:57 10° S 02:35:04 85° W 02:41:15 10° N
USA 308 3.1 02:30:59 10° WSW 02:35:15 72° NNW 02:39:31 10° ENE
Resurs 1-4 Rocket 3.1 02:30:54 10° N 02:35:44 36° WNW 02:40:31 10° SW
NOSS 2-2 (D) 4.0 02:33:21 10° WSW 02:36:38 42° NW 02:40:22 10° NNE
ASTEX 1 3.5 02:33:09 10° S 02:38:05 83° E 02:43:02 10° N
Cosmos 1933 4.4 02:37:09 10° NNW 02:40:45 30° W 02:44:16 10° SSW
X-37B 1.9 02:38:44 10° WSW 02:41:16 22° SSW 02:43:48 10° SSE
S3M 4.0 02:35:30 10° NNW 02:41:40 78° W 02:47:52 10° S
ADEOS II 2.4 02:40:16 10° N 02:45:26 58° WNW 02:50:35 10° SSW
Cosmos 1328 Rocket 3.5 02:41:55 10° NNW 02:46:16 69° W 02:50:36 10° S
Landsat 4 4.2 02:45:00 10° N 02:48:39 46° WNW 02:52:15 10° SW
FALCON 9 DEB 3.3 02:45:45 10° WNW 02:48:43 39° SW 02:51:39 10° SE
USA 305 3.4 02:48:19 10° W 02:52:32 58° NNW 02:56:45 10° ENE
Cosmos 2082 Rocket 4.3 02:52:17 10° SSE 02:56:27 22° E 03:00:38 10° NE
Lacrosse 4 Rocket 3.2 02:54:58 10° WNW 02:56:47 13° WSW 02:58:36 10° SW
CZ-3B R/B 1.4 02:52:34 10° WNW 02:57:28 84° SSW 02:59:48 10° SE
SL-08 R/B 3.7 02:53:01 10° SSE 02:57:40 71° ENE 03:02:27 10° N
CZ-2D R/B 3.5 02:53:38 10° N 02:57:51 25° WNW 03:02:03 10° WSW
SL-4 R/B 1.5 02:54:20 10° WNW 02:57:58 74° SSW 03:01:23 10° ESE
IDEFIX/ARIANE 42P 2.6 02:52:45 10° NNE 02:58:01 80° WNW 03:03:13 10° SSW
FALCON 9 DEB 4.0 03:01:17 10° W 03:03:47 22° SW 03:06:15 10° SSE
deb Kosmos-1763 4.3 03:00:53 10° SSW 03:04:23 65° ESE 03:07:54 10° NNE
CZ-2C R/B 4.0 03:00:25 10° NNE 03:04:56 34° E 03:09:17 10° SSE
BREEZE-M DEB (TANK) 1.6 03:03:47 10° W 03:05:57 47° SSW 03:08:54 10° ESE
Cosmos 1151 Rocket 3.8 03:02:46 10° NNW 03:06:37 33° W 03:10:25 10° SSW
Lacrosse 5 rocket 1.0 03:03:48 10° WNW 03:07:22 62° SW 03:11:02 10° SE
Cosmos 1862 3.4 03:04:15 10° SSW 03:08:17 75° WNW 03:12:22 10° N
CBERS-1 4.3 03:05:45 10° N 03:10:46 55° WNW 03:15:46 10° SW
Cosmos 2228 Rocket 4.0 03:06:30 10° N 03:10:56 53° ENE 03:15:18 10° SSE
USA 281 3.4 03:07:05 10° S 03:13:31 56° WSW 03:19:59 10° NNW
